MB7UUE Weather Reports


time (UTC)temp
F
wind
direction
speed
knots
gust
knots
rain 1hr
in
rain 24hr
in
rain mn
in
humidity
%
barometer
mb
20260506114214 55 326 5.2 14.8 0.00 0.00 0.00 59 1012.9
20260506112314 55 335 7.0 14.8 0.00 0.00 0.00 59 1012.9
20260506110415 55 338 5.2 14.8 0.00 0.00 0.00 58 1012.9
20260506104514 54 328 6.1 14.8 0.00 0.00 0.00 55 1012.8
20260506102614 54 322 6.1 14.8 0.00 0.00 0.00 58 1012.9
20260506100714 54 342 8.7 14.8 0.00 0.00 0.00 59 1012.9
20260506094815 53 326 1.7 14.8 0.00 0.00 0.00 59 1012.9
20260506092914 52 312 0.9 14.8 0.00 0.00 0.00 63 1012.9
20260506091014 52 327 5.2 14.8 0.00 0.00 0.00 65 1013.0
20260506085114 52 340 2.6 14.8 0.00 0.00 0.00 66 1012.9
20260506083216 50 327 0.9 14.8 0.00 0.00 0.00 69 1012.9
20260506081315 50 329 0.9 14.8 0.00 0.00 0.00 69 1012.9
20260506073514 49 320 4.3 14.8 0.00 0.00 0.00 72 1012.8
20260506071615 49 335 4.3 11.3 0.00 0.00 0.00 72 1012.8
20260506061915 47 325 6.1 10.4 0.00 0.00 0.00 78 1012.5
20260506050314 47 295 0.0 8.7 0.00 0.00 0.00 77 1012.4
20260506044416 47 294 0.0 8.7 0.00 0.00 0.00 76 1012.4
20260506042515 47 333 0.0 8.7 0.00 0.00 0.00 75 1012.3
20260506040616 48 324 0.0 8.7 0.00 0.00 0.00 75 1012.3
20260506034716 48 318 0.0 8.7 0.00 0.00 0.00 74 1012.2
20260506032815 48 321 0.0 8.7 0.00 0.00 0.00 74 1012.3
20260506030915 48 353 0.0 8.7 0.00 0.00 0.00 74 1012.4
20260506025015 49 344 0.0 8.7 0.00 0.00 0.00 75 1012.4
20260506023116 49 314 0.9 8.7 0.00 0.00 0.00 76 1012.5
20260506021215 50 343 5.2 7.0 0.00 0.00 0.00 76 1012.4
20260506015315 50 332 0.0 6.1 0.00 0.00 0.00 76 1012.7
20260506013415 50 346 0.0 6.1 0.00 0.00 0.00 75 1012.7
20260506011514 50 338 0.0 6.1 0.00 0.00 0.00 75 1012.7
20260506005614 50 344 0.0 6.1 0.00 0.00 0.00 75 1012.8
20260506003715 51 0 0.0 6.1 0.00 0.00 0.00 75 1012.9
20260506001815 51 356 0.0 6.1 0.00 0.00 0.00 74 1012.9
20260505235913 51 14 0.0 6.1 0.00 0.00 0.00 74 1012.9
20260505234014 51 330 0.0 6.1 0.00 0.00 0.00 74 1012.9
20260505232115 52 319 0.0 6.1 0.00 0.00 0.00 73 1012.9
20260505230215 52 322 0.9 2.6 0.00 0.00 0.00 73 1012.9
20260505224314 52 343 0.0 11.3 0.00 0.00 0.00 72 1012.9
20260505222413 52 342 0.0 11.3 0.00 0.00 0.00 74 1012.9
20260505220515 53 5 2.6 11.3 0.00 0.00 0.00 74 1012.8
20260505214615 54 354 1.7 11.3 0.00 0.00 0.00 64 1012.6
20260505212715 55 351 0.9 11.3 0.00 0.00 0.00 64 1012.6
20260505210814 55 39 1.7 11.3 0.00 0.00 0.00 64 1012.7
20260505204915 55 23 0.0 11.3 0.00 0.00 0.00 63 1012.7
20260505203013 55 30 0.0 11.3 0.00 0.00 0.00 63 1012.5
20260505201114 56 0 0.0 11.3 0.00 0.00 0.00 61 1012.4
20260505195213 56 0 0.0 11.3 0.00 0.00 0.00 59 1012.1
20260505193314 56 42 0.0 11.3 0.00 0.00 0.00 58 1011.8
20260505191413 57 16 0.0 11.3 0.00 0.00 0.00 57 1011.6
20260505185515 57 98 0.0 11.3 0.00 0.00 0.00 56 1011.4
20260505183615 58 100 1.7 11.3 0.00 0.00 0.00 55 1011.3
20260505181714 58 122 0.0 11.3 0.00 0.00 0.00 55 1011.3
20260505180302 58 69 0.0 11.3 0.00 0.00 0.00 54 1011.3
20260505174400 59 94 0.0 11.3 0.00 0.00 0.00 54 1011.3
20260505172502 59 32 0.0 11.3 0.00 0.00 0.00 53 1011.2
20260505170602 59 33 0.0 11.3 0.00 0.00 0.00 53 1011.3
20260505164700 60 72 0.9 11.3 0.00 0.00 0.00 52 1011.3
20260505162801 60 103 0.9 11.3 0.00 0.00 0.00 53 1011.3
20260505160902 60 116 1.7 11.3 0.00 0.00 0.00 54 1011.3
20260505153101 60 137 0.0 11.3 0.00 0.00 0.00 59 1011.5
20260505151201 61 113 0.9 11.3 0.00 0.00 0.00 53 1011.6
20260505124000 62 65 0.0 11.3 0.00 0.00 0.00 46 1011.9
20260505122100 62 351 0.0 11.3 0.00 0.00 0.00 46 1011.9
20260505120202 62 92 0.9 11.3 0.00 0.00 0.00 46 1011.9